,,PA_Meas_PMT16A,,PR_Meas_QMR101_102,,RH_Meas_QMH101,,SR_Meas_QMS101,,TA_Meas_QMH101,,GenWind,,GenWind,
time,status,PA,status,PR,status,RH,status,SR,status,TA,status,DirAvg,status,SpdAvg,
2011-01-10, 00:00:04,VALID,916.344,VALID,0,VALID,97.3358,VALID,0,VALID,18.4174,VALID,110,VALID,0.716406,
2011-01-10, 00:01:04,VALID,916.347,VALID,0,VALID,97.4273,VALID,0,VALID,18.4355,VALID,110,VALID,0.683203,
2011-01-10, 00:02:04,VALID,916.337,VALID,0,VALID,97.4501,VALID,0,VALID,18.4355,VALID,110,VALID,0.738672,
2011-01-10, 00:03:04,VALID,916.314,VALID,0,VALID,97.4577,VALID,0,VALID,18.455,VALID,110,VALID,0.972656,
2011-01-10, 00:04:04,VALID,916.311,VALID,0,VALID,97.4806,VALID,0,VALID,18.494,VALID,110,VALID,0.882422,
2011-01-10, 00:05:04,VALID,916.304,VALID,0,VALID,97.4501,VALID,0,VALID,18.5135,VALID,110,VALID,0.898828,
2011-01-10, 00:06:04,VALID,916.277,VALID,0,VALID,97.4349,VALID,0,VALID,18.5135,VALID,110,VALID,0.739062,
2011-01-10, 00:07:04,VALID,916.276,VALID,0,VALID,97.3205,VALID,0,VALID,18.494,VALID,110,VALID,0.607422,
2011-01-10, 00:08:04,VALID,916.274,VALID,0,VALID,97.2824,VALID,0,VALID,18.416,VALID,110,VALID,0.533984,
2011-01-10, 00:09:04,VALID,916.297,VALID,0,VALID,97.2672,VALID,0,VALID,18.377,VALID,110,VALID,0.541016,
2011-01-10, 00:10:04,VALID,916.3,VALID,0,VALID,97.3891,VALID,0.107441,VALID,18.377,VALID,110,VALID,0.59375,
2011-01-10, 00:11:04,VALID,916.303,VALID,0,VALID,97.4654,VALID,0,VALID,18.4355,VALID,110,VALID,0.489453,
2011-01-10, 00:12:04,VALID,916.272,VALID,0,VALID,97.4501,VALID,0,VALID,18.455,VALID,110,VALID,0.163281,
2011-01-10, 00:13:04,VALID,916.291,VALID,0,VALID,97.412,VALID,0,VALID,18.4355,VALID,110,VALID,0.434766,
2011-01-10, 00:14:04,VALID,916.273,VALID,0,VALID,97.4501,VALID,0,VALID,18.4745,VALID,110,VALID,0.144141,
2011-01-10, 00:15:04,VALID,916.277,VALID,0,VALID,97.4425,VALID,0,VALID,18.4745,VALID,110,VALID,0,
2011-01-10, 00:16:04,VALID,916.264,VALID,0,VALID,97.473,VALID,0,VALID,18.4745,VALID,110,VALID,0,
2011-01-10, 00:17:04,VALID,916.255,VALID,0,VALID,97.4654,VALID,0,VALID,18.533,VALID,110,VALID,0,
2011-01-10, 00:18:04,VALID,916.237,VALID,0,VALID,97.4349,VALID,0,VALID,18.533,VALID,110,VALID,0,
2011-01-10, 00:19:04,VALID,916.239,VALID,0,VALID,97.4196,VALID,0,VALID,18.5539,VALID,110,VALID,0,
2011-01-10, 00:20:04,VALID,916.216,VALID,0,VALID,97.3891,VALID,0,VALID,18.5135,VALID,110,VALID,0.0117188,
2011-01-10, 00:21:04,VALID,916.212,VALID,0,VALID,97.351,VALID,0,VALID,18.494,VALID,110,VALID,0.163672,
2011-01-10, 00:22:04,VALID,916.21,VALID,0,VALID,97.2519,VALID,0,VALID,18.4369,VALID,111,VALID,0.185547,
2011-01-10, 00:23:04,VALID,916.204,VALID,0,VALID,97.351,VALID,0,VALID,18.4369,VALID,110,VALID,0,
2011-01-10, 00:24:04,VALID,916.196,VALID,0,VALID,97.3891,VALID,0,VALID,18.4355,VALID,111,VALID,0,
2011-01-10, 00:25:04,VALID,916.188,VALID,0,VALID,97.3663,VALID,0,VALID,18.4355,VALID,111,VALID,0.0046875,
2011-01-10, 00:26:04,VALID,916.182,VALID,0,VALID,97.3663,VALID,0,VALID,18.377,VALID,110,VALID,0.416016,
2011-01-10, 00:27:04,VALID,916.171,VALID,0,VALID,97.3891,VALID,0,VALID,18.416,VALID,110,VALID,0.475,
2011-01-10, 00:28:04,VALID,916.181,VALID,0,VALID,97.3586,VALID,0,VALID,18.377,VALID,110,VALID,0.891406,
2011-01-10, 00:29:04,VALID,916.162,VALID,0,VALID,97.3434,VALID,0,VALID,18.377,VALID,110,VALID,0.811328,
2011-01-10, 00:30:04,VALID,916.164,VALID,0,VALID,97.3815,VALID,0,VALID,18.338,VALID,110,VALID,0.699219,
2011-01-10, 00:31:04,VALID,916.115,VALID,0,VALID,97.3739,VALID,0,VALID,18.338,VALID,110,VALID,0.479688,
2011-01-10, 00:32:04,VALID,916.138,VALID,0,VALID,97.3891,VALID,0,VALID,18.3394,VALID,110,VALID,0.719531,
2011-01-10, 00:33:04,VALID,916.139,VALID,0,VALID,97.4349,VALID,0,VALID,18.3575,VALID,110,VALID,0.671484,
2011-01-10, 00:34:04,VALID,916.107,VALID,0,VALID,97.4349,VALID,0,VALID,18.377,VALID,110,VALID,0.779688,
2011-01-10, 00:35:04,VALID,916.12,VALID,0,VALID,97.4349,VALID,0,VALID,18.4174,VALID,110,VALID,0.701563,
2011-01-10, 00:36:04,VALID,916.091,VALID,0,VALID,97.4273,VALID,0,VALID,18.416,VALID,110,VALID,0.765625,
2011-01-10, 00:37:04,VALID,916.092,VALID,0,VALID,97.4425,VALID,0,VALID,18.416,VALID,110,VALID,0.687109,
2011-01-10, 00:38:04,VALID,916.067,VALID,0,VALID,97.412,VALID,0,VALID,18.4369,VALID,110,VALID,0.360547,
2011-01-10, 00:39:04,VALID,916.035,VALID,0,VALID,97.412,VALID,0,VALID,18.3965,VALID,110,VALID,0.495703,
2011-01-10, 00:40:04,VALID,916.013,VALID,0,VALID,97.4577,VALID,0,VALID,18.416,VALID,110,VALID,0.50625,
2011-01-10, 00:41:04,VALID,915.987,VALID,0,VALID,97.4501,VALID,0,VALID,18.455,VALID,110,VALID,0.620313,
2011-01-10, 00:42:04,VALID,916,VALID,0,VALID,97.4501,VALID,0,VALID,18.4954,VALID,110,VALID,0.5375,
2011-01-10, 00:43:04,VALID,915.899,VALID,0,VALID,97.4196,VALID,0,VALID,18.4954,VALID,110,VALID,0.792969,
2011-01-10, 00:44:04,VALID,915.914,VALID,0,VALID,97.4425,VALID,0,VALID,18.494,VALID,110,VALID,0.782812,
2011-01-10, 00:45:04,VALID,915.894,VALID,0,VALID,97.4196,VALID,0,VALID,18.494,VALID,110,VALID,0.589063,
2011-01-10, 00:46:04,VALID,915.873,VALID,0,VALID,97.4044,VALID,0,VALID,18.5344,VALID,110,VALID,0.563281,
2011-01-10, 00:47:04,VALID,915.837,VALID,0,VALID,97.3891,VALID,0.107441,VALID,18.494,VALID,110,VALID,0.586719,
2011-01-10, 00:48:04,VALID,915.83,VALID,0,VALID,97.3739,VALID,0,VALID,18.494,VALID,110,VALID,0.4125,
2011-01-10, 00:49:04,VALID,915.838,VALID,0,VALID,97.4044,VALID,0,VALID,18.5135,VALID,110,VALID,0.6875,
2011-01-10, 00:50:04,VALID,915.835,VALID,0,VALID,97.3891,VALID,0,VALID,18.5135,VALID,110,VALID,0.671094,
2011-01-10, 00:51:04,VALID,915.845,VALID,0,VALID,97.3739,VALID,0,VALID,18.5344,VALID,110,VALID,0.290234,
2011-01-10, 00:52:04,VALID,915.837,VALID,0,VALID,97.351,VALID,0,VALID,18.4954,VALID,110,VALID,0.508984,
2011-01-10, 00:53:04,VALID,915.839,VALID,0,VALID,97.2595,VALID,0,VALID,18.4369,VALID,110,VALID,0.603125,
2011-01-10, 00:54:04,VALID,915.82,VALID,0,VALID,97.3586,VALID,0,VALID,18.3965,VALID,110,VALID,0.482422,
2011-01-10, 00:55:04,VALID,915.837,VALID,0,VALID,97.3891,VALID,0,VALID,18.4369,VALID,110,VALID,0.420312,
2011-01-10, 00:56:04,VALID,915.832,VALID,0,VALID,97.3815,VALID,0,VALID,18.416,VALID,110,VALID,0.341797,
2011-01-10, 00:57:04,VALID,915.816,VALID,0,VALID,97.3815,VALID,0,VALID,18.3965,VALID,110,VALID,0.205469,
2011-01-10, 00:58:04,VALID,915.791,VALID,0,VALID,97.412,VALID,0,VALID,18.4174,VALID,110,VALID,0.319531,
2011-01-10, 00:59:04,VALID,915.762,VALID,0,VALID,97.412,VALID,0,VALID,18.4564,VALID,110,VALID,0.492969,
2011-01-10, 01:00:04,VALID,915.767,VALID,0,VALID,97.4196,VALID,0,VALID,18.4564,VALID,110,VALID,0.376172,
2011-01-10, 01:01:04,VALID,915.732,VALID,0,VALID,97.412,VALID,0,VALID,18.4355,VALID,110,VALID,0.657812,
2011-01-10, 01:02:04,VALID,915.729,VALID,0,VALID,97.4349,VALID,0,VALID,18.4564,VALID,110,VALID,0.546875,
2011-01-10, 01:03:04,VALID,915.697,VALID,0,VALID,97.4196,VALID,0,VALID,18.455,VALID,110,VALID,0.620313,
2011-01-10, 01:04:04,VALID,915.69,VALID,0,VALID,97.3968,VALID,0,VALID,18.4564,VALID,110,VALID,0.608594,
2011-01-10, 01:05:04,VALID,915.673,VALID,0,VALID,97.4196,VALID,0,VALID,18.455,VALID,110,VALID,0.594922,
2011-01-10, 01:06:04,VALID,915.665,VALID,0,VALID,97.4349,VALID,0,VALID,18.4954,VALID,110,VALID,0.621875,
2011-01-10, 01:07:04,VALID,915.664,VALID,0,VALID,97.4349,VALID,0,VALID,18.4954,VALID,110,VALID,0.230078,
2011-01-10, 01:08:04,VALID,915.69,VALID,0,VALID,97.4196,VALID,0,VALID,18.455,VALID,110,VALID,0.121875,
2011-01-10, 01:09:04,VALID,915.654,VALID,0,VALID,97.4273,VALID,0,VALID,18.4954,VALID,110,VALID,0.187109,
2011-01-10, 01:10:04,VALID,915.653,VALID,0,VALID,97.3815,VALID,0,VALID,18.4355,VALID,110,VALID,0.316406,
2011-01-10, 01:11:04,VALID,915.657,VALID,0,VALID,97.3205,VALID,0,VALID,18.4174,VALID,110,VALID,0.590234,
2011-01-10, 01:12:04,VALID,915.621,VALID,0,VALID,97.3358,VALID,0,VALID,18.3784,VALID,110,VALID,0.813672,
2011-01-10, 01:13:04,VALID,915.626,VALID,0,VALID,97.3891,VALID,0,VALID,18.3784,VALID,110,VALID,0.727344,
2011-01-10, 01:14:04,VALID,915.612,VALID,0,VALID,97.3891,VALID,0,VALID,18.3589,VALID,110,VALID,1.08008,
2011-01-10, 01:15:04,VALID,915.611,VALID,0,VALID,97.4273,VALID,0,VALID,18.3589,VALID,110,VALID,0.863672,
2011-01-10, 01:16:04,VALID,915.61,VALID,0,VALID,97.412,VALID,0,VALID,18.3784,VALID,110,VALID,0.6625,
2011-01-10, 01:17:04,VALID,915.636,VALID,0,VALID,97.473,VALID,0,VALID,18.4174,VALID,110,VALID,0.638672,
2011-01-10, 01:18:04,VALID,915.616,VALID,0,VALID,97.4959,VALID,0,VALID,18.4369,VALID,110,VALID,0.673437,
2011-01-10, 01:19:04,VALID,915.599,VALID,0,VALID,97.4882,VALID,0,VALID,18.4759,VALID,110,VALID,0.714453,
2011-01-10, 01:20:04,VALID,915.595,VALID,0,VALID,97.4654,VALID,0,VALID,18.4954,VALID,110,VALID,0.696484,
2011-01-10, 01:21:04,VALID,915.553,VALID,0,VALID,97.4654,VALID,0,VALID,18.494,VALID,110,VALID,0.927344,
2011-01-10, 01:22:04,VALID,915.536,VALID,0,VALID,97.4349,VALID,0,VALID,18.494,VALID,110,VALID,0.600391,
2011-01-10, 01:23:04,VALID,915.517,VALID,0,VALID,97.4273,VALID,0,VALID,18.4954,VALID,110,VALID,0.952734,
2011-01-10, 01:24:04,VALID,915.511,VALID,0,VALID,97.3968,VALID,0,VALID,18.4954,VALID,110,VALID,0.68125,
2011-01-10, 01:25:04,VALID,915.479,VALID,0,VALID,97.4044,VALID,0,VALID,18.4954,VALID,110,VALID,0.572656,
2011-01-10, 01:26:04,VALID,915.493,VALID,0,VALID,97.3968,VALID,0,VALID,18.455,VALID,110,VALID,0.869531,
2011-01-10, 01:27:04,VALID,915.512,VALID,0,VALID,97.3891,VALID,0,VALID,18.4759,VALID,110,VALID,0.637109,
2011-01-10, 01:28:04,VALID,915.499,VALID,0,VALID,97.4273,VALID,0,VALID,18.4954,VALID,110,VALID,0.437109,
2011-01-10, 01:29:04,VALID,915.487,VALID,0,VALID,97.4196,VALID,0,VALID,18.494,VALID,110,VALID,0.189063,
2011-01-10, 01:30:04,VALID,915.514,VALID,0,VALID,97.3663,VALID,0,VALID,18.4954,VALID,110,VALID,0.227344,
2011-01-10, 01:31:04,VALID,915.509,VALID,0,VALID,97.3891,VALID,0.107441,VALID,18.4745,VALID,110,VALID,0.476953,
2011-01-10, 01:32:04,VALID,915.502,VALID,0,VALID,97.3891,VALID,0.107441,VALID,18.4745,VALID,110,VALID,0.516016,
2011-01-10, 01:33:04,VALID,915.505,VALID,0,VALID,97.3968,VALID,0.107441,VALID,18.4731,VALID,110,VALID,0.524219,
2011-01-10, 01:34:04,VALID,915.499,VALID,0,VALID,97.4273,VALID,0.107441,VALID,18.5135,VALID,110,VALID,0.580469,
2011-01-10, 01:35:04,VALID,915.485,VALID,0,VALID,97.4425,VALID,0.107441,VALID,18.5525,VALID,110,VALID,0.55,
2011-01-10, 01:36:04,VALID,915.477,VALID,0,VALID,97.4501,VALID,0,VALID,18.572,VALID,110,VALID,0.494531,
2011-01-10, 01:37:04,VALID,915.473,VALID,0,VALID,97.4349,VALID,0.107441,VALID,18.5316,VALID,110,VALID,0.396875,
2011-01-10, 01:38:04,VALID,915.48,VALID,0,VALID,97.4196,VALID,0.107441,VALID,18.5525,VALID,110,VALID,0.473828,
2011-01-10, 01:39:04,VALID,915.463,VALID,0,VALID,97.4425,VALID,0,VALID,18.5914,VALID,110,VALID,0.536328,
2011-01-10, 01:40:04,VALID,915.434,VALID,0,VALID,97.4425,VALID,0.107441,VALID,18.5705,VALID,110,VALID,0.500391,
2011-01-10, 01:41:04,VALID,915.427,VALID,0,VALID,97.412,VALID,0,VALID,18.59,VALID,110,VALID,0.341016,
2011-01-10, 01:42:04,VALID,915.444,VALID,0,VALID,97.3815,VALID,0.107441,VALID,18.5914,VALID,110,VALID,0.383203,
2011-01-10, 01:43:04,VALID,915.442,VALID,0,VALID,97.3968,VALID,0,VALID,18.5914,VALID,110,VALID,0.420312,
2011-01-10, 01:44:04,VALID,915.444,VALID,0,VALID,97.4196,VALID,0,VALID,18.6109,VALID,110,VALID,0.369531,
2011-01-10, 01:45:04,VALID,915.439,VALID,0,VALID,97.4196,VALID,0.107441,VALID,18.6499,VALID,110,VALID,0.299609,
2011-01-10, 01:46:04,VALID,915.453,VALID,0,VALID,97.4273,VALID,0,VALID,18.6304,VALID,110,VALID,0.0984375,
2011-01-10, 01:47:04,VALID,915.424,VALID,0,VALID,97.3968,VALID,0,VALID,18.6513,VALID,110,VALID,0.342969,
2011-01-10, 01:48:04,VALID,915.412,VALID,0,VALID,97.4196,VALID,0,VALID,18.6708,VALID,110,VALID,0.509375,
2011-01-10, 01:49:04,VALID,915.435,VALID,0,VALID,97.3968,VALID,0,VALID,18.6304,VALID,110,VALID,0.609766,
2011-01-10, 01:50:04,VALID,915.383,VALID,0,VALID,97.4044,VALID,0,VALID,18.6513,VALID,110,VALID,0.435937,
2011-01-10, 01:51:04,VALID,915.419,VALID,0,VALID,97.3891,VALID,0,VALID,18.6319,VALID,110,VALID,0.683984,
2011-01-10, 01:52:04,VALID,915.399,VALID,0,VALID,97.3815,VALID,0,VALID,18.6319,VALID,110,VALID,0.594141,
2011-01-10, 01:53:04,VALID,915.383,VALID,0,VALID,97.3739,VALID,0,VALID,18.6319,VALID,110,VALID,0.6875,
2011-01-10, 01:54:04,VALID,915.404,VALID,0,VALID,97.3586,VALID,0,VALID,18.6319,VALID,110,VALID,0.510938,
2011-01-10, 01:55:04,VALID,915.401,VALID,0,VALID,97.3586,VALID,0,VALID,18.6319,VALID,110,VALID,0.263281,
2011-01-10, 01:56:04,VALID,915.387,VALID,0,VALID,97.3663,VALID,0,VALID,18.6109,VALID,110,VALID,0,
2011-01-10, 01:57:04,VALID,915.396,VALID,0,VALID,97.3739,VALID,0,VALID,18.6124,VALID,110,VALID,0,
2011-01-10, 01:58:04,VALID,915.394,VALID,0,VALID,97.3739,VALID,0,VALID,18.6319,VALID,110,VALID,0,
2011-01-10, 01:59:04,VALID,915.394,VALID,0,VALID,97.3815,VALID,0,VALID,18.5914,VALID,110,VALID,0.299219,
2011-01-10, 02:00:04,VALID,915.379,VALID,0,VALID,97.3968,VALID,0,VALID,18.6513,VALID,110,VALID,0.412891,
2011-01-10, 02:01:04,VALID,915.345,VALID,0,VALID,97.4044,VALID,0,VALID,18.6708,VALID,110,VALID,0.172656,
2011-01-10, 02:02:04,VALID,915.345,VALID,0,VALID,97.3891,VALID,0,VALID,18.6513,VALID,110,VALID,0.202344,
2011-01-10, 02:03:04,VALID,915.358,VALID,0,VALID,97.3968,VALID,0,VALID,18.6694,VALID,110,VALID,0.198047,
2011-01-10, 02:04:04,VALID,915.345,VALID,0,VALID,97.3663,VALID,0,VALID,18.6903,VALID,110,VALID,0.311328,
2011-01-10, 02:05:04,VALID,915.338,VALID,0,VALID,97.351,VALID,0,VALID,18.6513,VALID,110,VALID,0.212109,
2011-01-10, 02:06:04,VALID,915.323,VALID,0,VALID,97.3358,VALID,0,VALID,18.6499,VALID,110,VALID,0.451562,
2011-01-10, 02:07:04,VALID,915.303,VALID,0,VALID,97.3586,VALID,0,VALID,18.6513,VALID,110,VALID,0.622266,
2011-01-10, 02:08:04,VALID,915.296,VALID,0,VALID,97.351,VALID,0,VALID,18.6513,VALID,110,VALID,0.673437,
2011-01-10, 02:09:04,VALID,915.315,VALID,0,VALID,97.351,VALID,0,VALID,18.6708,VALID,110,VALID,0.747266,
2011-01-10, 02:10:04,VALID,915.285,VALID,0,VALID,97.3663,VALID,0,VALID,18.6499,VALID,110,VALID,0.210938,
2011-01-10, 02:11:04,VALID,915.292,VALID,0,VALID,97.351,VALID,0,VALID,18.6708,VALID,110,VALID,0,
2011-01-10, 02:12:04,VALID,915.275,VALID,0,VALID,97.351,VALID,0,VALID,18.6708,VALID,110,VALID,0,
2011-01-10, 02:13:04,VALID,915.232,VALID,0,VALID,97.3434,VALID,0,VALID,18.6304,VALID,110,VALID,0.338672,
2011-01-10, 02:14:04,VALID,915.254,VALID,0,VALID,97.351,VALID,0,VALID,18.6708,VALID,110,VALID,0.635156,
2011-01-10, 02:15:04,VALID,915.206,VALID,0,VALID,97.3281,VALID,0,VALID,18.6499,VALID,110,VALID,0.614844,
2011-01-10, 02:16:04,VALID,915.231,VALID,0,VALID,97.29,VALID,0.107441,VALID,18.6304,VALID,110,VALID,0.932422,
2011-01-10, 02:17:04,VALID,915.209,VALID,0,VALID,97.3053,VALID,0,VALID,18.6109,VALID,110,VALID,0.840625,
2011-01-10, 02:18:04,VALID,915.201,VALID,0,VALID,97.3129,VALID,0,VALID,18.59,VALID,110,VALID,0.772656,
2011-01-10, 02:19:04,VALID,915.199,VALID,0,VALID,97.3205,VALID,0,VALID,18.59,VALID,110,VALID,0.513672,
2011-01-10, 02:20:04,VALID,915.196,VALID,0,VALID,97.3205,VALID,0.107441,VALID,18.5705,VALID,110,VALID,0.515234,
2011-01-10, 02:21:04,VALID,915.194,VALID,0,VALID,97.3281,VALID,0,VALID,18.5705,VALID,110,VALID,0.445313,
2011-01-10, 02:22:04,VALID,915.199,VALID,0,VALID,97.3205,VALID,0,VALID,18.5914,VALID,110,VALID,0.231641,
2011-01-10, 02:23:04,VALID,915.173,VALID,0,VALID,97.3358,VALID,0.107441,VALID,18.5914,VALID,110,VALID,0.319531,
2011-01-10, 02:24:04,VALID,915.187,VALID,0,VALID,97.3358,VALID,0.107441,VALID,18.5914,VALID,110,VALID,0.261328,
2011-01-10, 02:25:04,VALID,915.163,VALID,0,VALID,97.3358,VALID,0,VALID,18.59,VALID,110,VALID,0.385938,
2011-01-10, 02:26:04,VALID,915.17,VALID,0,VALID,97.3434,VALID,0.107441,VALID,18.59,VALID,110,VALID,0.51875,
2011-01-10, 02:27:04,VALID,915.142,VALID,0,VALID,97.3586,VALID,0,VALID,18.6095,VALID,110,VALID,0.347266,
2011-01-10, 02:28:04,VALID,915.129,VALID,0,VALID,97.3434,VALID,0.107441,VALID,18.6304,VALID,110,VALID,0.694531,
2011-01-10, 02:29:04,VALID,915.158,VALID,0,VALID,97.3586,VALID,0.107441,VALID,18.6304,VALID,110,VALID,0.645703,
2011-01-10, 02:30:04,VALID,915.137,VALID,0,VALID,97.3205,VALID,0.107441,VALID,18.6095,VALID,110,VALID,0.591016,
2011-01-10, 02:31:04,VALID,915.119,VALID,0,VALID,97.351,VALID,0,VALID,18.6319,VALID,110,VALID,0.276953,
2011-01-10, 02:32:04,VALID,915.126,VALID,0,VALID,97.3358,VALID,0,VALID,18.6319,VALID,110,VALID,0.213281,
2011-01-10, 02:33:04,VALID,915.119,VALID,0,VALID,97.3434,VALID,0,VALID,18.6319,VALID,110,VALID,0.163281,
2011-01-10, 02:34:04,VALID,915.116,VALID,0,VALID,97.3358,VALID,0,VALID,18.6109,VALID,110,VALID,0.4875,
2011-01-10, 02:35:04,VALID,915.13,VALID,0,VALID,97.3434,VALID,0,VALID,18.6319,VALID,110,VALID,0.376563,
2011-01-10, 02:36:04,VALID,915.126,VALID,0,VALID,97.351,VALID,0,VALID,18.6319,VALID,110,VALID,0.240625,
2011-01-10, 02:37:04,VALID,915.12,VALID,0,VALID,97.3434,VALID,0,VALID,18.6304,VALID,110,VALID,0.176953,
2011-01-10, 02:38:04,VALID,915.078,VALID,0,VALID,97.351,VALID,0,VALID,18.6304,VALID,110,VALID,0,
2011-01-10, 02:39:04,VALID,915.056,VALID,0,VALID,97.3434,VALID,0,VALID,18.6304,VALID,110,VALID,0,
2011-01-10, 02:40:04,VALID,915.078,VALID,0,VALID,97.3663,VALID,0,VALID,18.6304,VALID,110,VALID,0,
2011-01-10, 02:41:04,VALID,915.07,VALID,0,VALID,97.3663,VALID,0,VALID,18.6499,VALID,110,VALID,0.272266,
2011-01-10, 02:42:04,VALID,915.086,VALID,0,VALID,97.3434,VALID,0,VALID,18.6304,VALID,110,VALID,0.537109,
2011-01-10, 02:43:04,VALID,915.059,VALID,0,VALID,97.3586,VALID,0,VALID,18.6499,VALID,110,VALID,0.466016,
2011-01-10, 02:44:04,VALID,915.061,VALID,0,VALID,97.3586,VALID,0,VALID,18.6499,VALID,110,VALID,0.261328,
2011-01-10, 02:45:04,VALID,915.054,VALID,0,VALID,97.3663,VALID,0,VALID,18.6499,VALID,110,VALID,0.315234,
2011-01-10, 02:46:04,VALID,915.058,VALID,0,VALID,97.3281,VALID,0,VALID,18.6499,VALID,110,VALID,0.284375,
2011-01-10, 02:47:04,VALID,915.079,VALID,0,VALID,97.3586,VALID,0,VALID,18.6499,VALID,110,VALID,0.287109,
2011-01-10, 02:48:04,VALID,915.096,VALID,0,VALID,97.3739,VALID,0,VALID,18.6513,VALID,110,VALID,0.361719,
2011-01-10, 02:49:04,VALID,915.092,VALID,0,VALID,97.351,VALID,0,VALID,18.6499,VALID,110,VALID,0.261328,
2011-01-10, 02:50:04,VALID,915.121,VALID,0,VALID,97.3663,VALID,0,VALID,18.6499,VALID,110,VALID,0.480859,
2011-01-10, 02:51:04,VALID,915.116,VALID,0,VALID,97.3663,VALID,0,VALID,18.6499,VALID,110,VALID,0.00195313,
2011-01-10, 02:52:04,VALID,915.084,VALID,0,VALID,97.3815,VALID,0,VALID,18.6694,VALID,110,VALID,0,
2011-01-10, 02:53:04,VALID,915.092,VALID,0,VALID,97.3891,VALID,0,VALID,18.6694,VALID,110,VALID,0,
2011-01-10, 02:54:04,VALID,915.108,VALID,0,VALID,97.3891,VALID,0,VALID,18.6694,VALID,110,VALID,0,
2011-01-10, 02:55:04,VALID,915.089,VALID,0,VALID,97.3586,VALID,0,VALID,18.6694,VALID,110,VALID,0,
2011-01-10, 02:56:04,VALID,915.066,VALID,0,VALID,97.3739,VALID,0,VALID,18.6694,VALID,110,VALID,0,
2011-01-10, 02:57:04,VALID,915.073,VALID,0,VALID,97.3739,VALID,0,VALID,18.6694,VALID,110,VALID,0,
2011-01-10, 02:58:04,VALID,915.101,VALID,0,VALID,97.3663,VALID,0,VALID,18.6694,VALID,110,VALID,0.0519531,
2011-01-10, 02:59:04,VALID,915.094,VALID,0,VALID,97.3663,VALID,0,VALID,18.6694,VALID,110,VALID,0,
2011-01-10, 03:00:04,VALID,915.065,VALID,0,VALID,97.3663,VALID,0,VALID,18.6694,VALID,110,VALID,0.0863281,
2011-01-10, 03:01:04,VALID,915.059,VALID,0,VALID,97.3739,VALID,0,VALID,18.6694,VALID,110,VALID,0.376172,
2011-01-10, 03:02:04,VALID,915.053,VALID,0,VALID,97.3968,VALID,0,VALID,18.6903,VALID,110,VALID,0.344922,
2011-01-10, 03:03:04,VALID,915.048,VALID,0,VALID,97.4044,VALID,0,VALID,18.6889,VALID,110,VALID,0.397266,
2011-01-10, 03:04:04,VALID,915.036,VALID,0,VALID,97.3891,VALID,0,VALID,18.6889,VALID,110,VALID,0.486719,
2011-01-10, 03:05:04,VALID,915.025,VALID,0,VALID,97.3663,VALID,0,VALID,18.7098,VALID,110,VALID,0.737109,
2011-01-10, 03:06:04,VALID,915.015,VALID,0,VALID,97.3434,VALID,0,VALID,18.6694,VALID,110,VALID,0.645703,
2011-01-10, 03:07:04,VALID,915.039,VALID,0,VALID,97.3586,VALID,0,VALID,18.6903,VALID,110,VALID,0.497656,
2011-01-10, 03:08:04,VALID,915.057,VALID,0,VALID,97.351,VALID,0,VALID,18.6499,VALID,110,VALID,0.539453,
2011-01-10, 03:09:04,VALID,915.05,VALID,0,VALID,97.3663,VALID,0,VALID,18.6304,VALID,110,VALID,0.480859,
2011-01-10, 03:10:04,VALID,915.02,VALID,0,VALID,97.3891,VALID,0,VALID,18.6499,VALID,110,VALID,0.575391,
2011-01-10, 03:11:04,VALID,915.028,VALID,0,VALID,97.3663,VALID,0,VALID,18.6499,VALID,110,VALID,1.0918,
2011-01-10, 03:12:04,VALID,915.025,VALID,0,VALID,97.3663,VALID,0,VALID,18.6499,VALID,25,VALID,1.12852,
2011-01-10, 03:13:04,VALID,915.032,VALID,0,VALID,97.351,VALID,0,VALID,18.6499,VALID,360,VALID,1.08047,
2011-01-10, 03:14:04,VALID,914.997,VALID,0,VALID,97.3663,VALID,0,VALID,18.6708,VALID,12,VALID,1.60195,
2011-01-10, 03:15:04,VALID,914.989,VALID,0,VALID,97.3739,VALID,0,VALID,18.6499,VALID,16,VALID,1.15,
2011-01-10, 03:16:04,VALID,915.019,VALID,0,VALID,97.3586,VALID,0,VALID,18.6694,VALID,16,VALID,0.916016,
2011-01-10, 03:17:04,VALID,915.031,VALID,0,VALID,97.3358,VALID,0,VALID,18.6903,VALID,16,VALID,1.27813,
2011-01-10, 03:18:04,VALID,915.029,VALID,0,VALID,97.3281,VALID,0,VALID,18.6903,VALID,16,VALID,1.25039,
2011-01-10, 03:19:04,VALID,915.013,VALID,0,VALID,97.3205,VALID,0,VALID,18.6694,VALID,16,VALID,1.15117,
2011-01-10, 03:20:04,VALID,915.015,VALID,0,VALID,97.3129,VALID,0,VALID,18.7098,VALID,16,VALID,1.23945,
2011-01-10, 03:21:04,VALID,915.006,VALID,0,VALID,97.3205,VALID,0,VALID,18.6694,VALID,16,VALID,1.30117,
2011-01-10, 03:22:04,VALID,915.07,VALID,0,VALID,97.3281,VALID,0,VALID,18.6889,VALID,16,VALID,0.830078,
2011-01-10, 03:23:04,VALID,915.046,VALID,0,VALID,97.3129,VALID,0,VALID,18.6694,VALID,16,VALID,0.690234,
2011-01-10, 03:24:04,VALID,915,VALID,0,VALID,97.351,VALID,0,VALID,18.6903,VALID,16,VALID,0.276563,
2011-01-10, 03:25:04,VALID,914.964,VALID,0,VALID,97.3434,VALID,0,VALID,18.6889,VALID,16,VALID,0.622266,
2011-01-10, 03:26:04,VALID,914.986,VALID,0,VALID,97.3358,VALID,0,VALID,18.6889,VALID,16,VALID,0.126953,
2011-01-10, 03:27:04,VALID,914.965,VALID,0,VALID,97.3358,VALID,0,VALID,18.6903,VALID,16,VALID,0.0523437,
2011-01-10, 03:28:04,VALID,914.972,VALID,0,VALID,97.3434,VALID,0,VALID,18.6903,VALID,16,VALID,0.251953,
2011-01-10, 03:29:04,VALID,914.977,VALID,0,VALID,97.3663,VALID,0,VALID,18.6889,VALID,355,VALID,0.935938,
2011-01-10, 03:30:04,VALID,914.924,VALID,0,VALID,97.2977,VALID,0,VALID,18.6708,VALID,37,VALID,1.1168,
2011-01-10, 03:31:04,VALID,914.911,VALID,0,VALID,97.3434,VALID,0,VALID,18.6694,VALID,37,VALID,0.771484,
2011-01-10, 03:32:04,VALID,914.915,VALID,0,VALID,97.3129,VALID,0,VALID,18.6889,VALID,37,VALID,0.386719,
2011-01-10, 03:33:04,VALID,914.916,VALID,0,VALID,97.3129,VALID,0,VALID,18.6694,VALID,37,VALID,0.597266,
2011-01-10, 03:34:04,VALID,914.919,VALID,0,VALID,97.2977,VALID,0,VALID,18.6694,VALID,37,VALID,1.2668,
2011-01-10, 03:35:04,VALID,914.939,VALID,0,VALID,97.2824,VALID,0,VALID,18.6499,VALID,354,VALID,0.673047,
2011-01-10, 03:36:04,VALID,914.977,VALID,0,VALID,97.2595,VALID,0,VALID,18.6903,VALID,354,VALID,0.804297,
2011-01-10, 03:37:04,VALID,914.924,VALID,0,VALID,97.2748,VALID,0,VALID,18.6499,VALID,354,VALID,0.642187,
2011-01-10, 03:38:04,VALID,914.921,VALID,0,VALID,97.2824,VALID,0,VALID,18.6694,VALID,354,VALID,0.421094,
2011-01-10, 03:39:04,VALID,914.936,VALID,0,VALID,97.29,VALID,0,VALID,18.6889,VALID,354,VALID,0.417578,
2011-01-10, 03:40:04,VALID,914.92,VALID,0,VALID,97.2977,VALID,0,VALID,18.7084,VALID,354,VALID,0,
2011-01-10, 03:41:04,VALID,914.907,VALID,0,VALID,97.29,VALID,0,VALID,18.7293,VALID,354,VALID,0.340234,
2011-01-10, 03:42:04,VALID,914.935,VALID,0,VALID,97.3053,VALID,0,VALID,18.7488,VALID,354,VALID,0.390234,
2011-01-10, 03:43:04,VALID,914.911,VALID,0,VALID,97.2977,VALID,0,VALID,18.7488,VALID,354,VALID,0.260938,
2011-01-10, 03:44:04,VALID,914.91,VALID,0,VALID,97.3053,VALID,0,VALID,18.7279,VALID,354,VALID,0.403906,
2011-01-10, 03:45:04,VALID,914.93,VALID,0,VALID,97.3053,VALID,0,VALID,18.7683,VALID,354,VALID,0.701953,